Home > Weather > Fremont > Past weeks

Flag for USA Past Weather in Fremont, California, USA — Yesterday and Last 2 Weeks

Now
57 °F

Overcast.


Feels Like: 57 °F
Forecast: 55 / 65 °F
Wind: 3 mph from North

Location: Moffett Field

Current Time: May 24, 2016 at 5:04:38 AM

Latest Report: May 24, 2016 at 3:56 AM


Visibility: 10 mi

Pressure: 29.92 "Hg

Humidity: 74%

Dew Point: 49 °F

Location of FremontLocation

Past Weather in Fremont — Graph

°F

Fremont Temperature Yesterday

Maximum temperature yesterday: 70 °F (at 2:56 PM)
Minimum temperature yesterday: 50 °F (at 2:56 AM)
Average temperature yesterday: 60 °F

High & Low Weather Summary for the Past Weeks

 TemperatureHumidityPressure
High89 °F (May 17, 2:56 PM)87% (May 10, 1:56 AM)30.14 "Hg (May 10, 1:56 AM)
Low48 °F (May 22, 5:56 AM)20% (May 17, 4:56 PM)29.82 "Hg (May 20, 2:56 AM)
Average62 °F66%29.99 "Hg
* Reported May 9 2:56 AM — May 24 2:56 AM, Fremont, Weather by CustomWeather, © 2016

Note: Actual official high and low records may vary slightly from our data, if they occured in-between our weather recording intervals... More about our weather records

Advertising

Fremont Weather History for the Previous 24 Hours

Scroll right to see more
 ConditionsComfort  
Time TempWeatherWind HumidityBarometerVisibility
2:56 AM
Tue, May 24
56 °FMostly cloudy.3 mph77%29.93 "Hg10 mi
1:56 AM56 °FOvercast.No wind77%29.93 "Hg10 mi
12:56 AM55 °FPassing clouds.3 mph80%29.94 "Hg10 mi
11:56 PM
Mon, May 23
55 °FPassing clouds.6 mph80%29.94 "Hg10 mi
10:56 PM56 °FClear.5 mph81%29.95 "Hg10 mi
9:56 PM57 °FClear.7 mph81%29.94 "Hg10 mi
8:56 PM59 °FPartly sunny.5 mph72%29.92 "Hg10 mi
7:56 PM62 °FPassing clouds.6 mph65%29.91 "Hg10 mi
6:56 PM65 °FSunny.8 mph56%29.90 "Hg10 mi
5:56 PM68 °FSunny.15 mph51%29.90 "Hg10 mi
4:56 PM69 °FSunny.12 mph45%29.91 "Hg10 mi
3:56 PM70 °FSunny.18 mph44%29.92 "Hg10 mi
2:56 PM70 °FSunny.21 mph49%29.93 "Hg10 mi
1:56 PM68 °FSunny.15 mph53%29.94 "Hg10 mi
12:56 PM68 °FSunny.15 mph51%29.96 "Hg10 mi
11:56 AM66 °FSunny.8 mph52%29.97 "Hg10 mi
10:56 AM65 °FScattered clouds.7 mph54%29.98 "Hg10 mi
9:56 AM62 °FPassing clouds.No wind58%29.99 "Hg10 mi
8:56 AM59 °FPartly sunny.No wind62%30.00 "Hg10 mi
7:56 AM58 °FSunny.3 mph62%30.01 "Hg10 mi
6:56 AM53 °FScattered clouds.No wind72%30.01 "Hg10 mi
5:56 AM51 °FClear.3 mph74%29.99 "Hg10 mi
Weather by CustomWeather, © 2016

See weather overviewHow to use our weather pages